Weather History for VAAH - October, 2012

Change the Weather History Date:

Tuesday, October 16, 2012

  Actual Average Record
Temperature  
Mean Temperature 82 °F -  
Max Temperature 97 °F 90 °F 102 °F (2006)
Min Temperature 67 °F 65 °F 66 °F (2004)
Cooling Degree Days 17    
Growing Degree Days 32 (Base 50)    
Moisture  
Dew Point 65 °F    
Average Humidity 55    
Maximum Humidity 83    
Minimum Humidity 22    
Precipitation  
Precipitation 0.00 in 0.02 in - ()
Sea Level Pressure  
Sea Level Pressure 29.93 in    
Wind  
Wind Speed 1 mph ()    
Max Wind Speed 6 mph    
Max Gust Speed -    
Visibility 2.6 miles    
Events      
Averages and records for this station are not official NWS values.
T = Trace of Precipitation, MM = Missing Value Source: Averaged Metar Reports

Daily Weather History Graph

Daily Weather History Graph

Search for Another Location

Airport or City:

Trip Planner

Search our weather history database for the weather conditions in past years. The results will help you decide how hot, cold, wet, or windy it might be!

Date:

Astronomy

Oct. 16, 2012 Rise Set
Actual Time 6:36 AM IST 6:12 PM IST
Civil Twilight 6:14 AM IST 6:35 PM IST
Nautical Twilight 5:47 AM IST 7:01 PM IST
Astronomical Twilight 5:21 AM IST 7:27 PM IST
Moon 7:16 AM IST (10/16) 6:49 PM IST (10/16)
Length of Visible Light 12h 21m
Length of Day
11h 36m
New Moon, 1% of the Moon is Illuminated
Oct 16
New Moon
Oct 22
First Quarter
Oct 30
Full
Nov 7
Last Quarter
Nov 14
New

Hourly Weather History & Observations

Time (IST) Temp. Heat Index Dew Point Humidity Pressure Visibility Wind Dir Wind Speed Gust Speed Precip Events Conditions
12:10 AM 78.8 °F - 69.8 °F 74% 29.95 in 2.5 mi Calm Calm - N/A   Haze
12:40 AM 78.8 °F - 69.8 °F 74% 29.95 in 2.5 mi Calm Calm - N/A   Haze
1:10 AM 77.0 °F - 68.0 °F 74% 29.95 in 2.5 mi Calm Calm - N/A   Haze
1:40 AM 77.0 °F - 68.0 °F 74% 29.95 in 2.5 mi Calm Calm - N/A   Haze
2:10 AM 77.0 °F - 64.4 °F 65% 29.92 in 2.5 mi Calm Calm - N/A   Haze
2:30 AM 73 °F - 66 °F 72% 29.94 in 2 mi Calm Calm - -   Haze
2:40 AM 75.2 °F - 64.4 °F 69% 29.92 in 2.5 mi Calm Calm - N/A   Haze
3:10 AM 75.2 °F - 64.4 °F 69% 29.92 in 2.5 mi Calm Calm - N/A   Haze
3:40 AM 73.4 °F - 66.2 °F 78% 29.92 in 2.5 mi Calm Calm - N/A   Haze
4:10 AM 73.4 °F - 68.0 °F 83% 29.95 in 2.5 mi Calm Calm - N/A   Haze
4:40 AM 73.4 °F - 66.2 °F 78% 29.95 in 2.5 mi Calm Calm - N/A   Haze
5:10 AM 71.6 °F - 64.4 °F 78% 29.95 in 2.5 mi Calm Calm - N/A   Haze
5:30 AM 71 °F - 65 °F 75% 29.96 in 2 mi West 2.3 mph - -   Haze
5:40 AM 71.6 °F - 66.2 °F 83% 29.95 in 2.5 mi Calm Calm - N/A   Haze
6:10 AM 71.6 °F - 64.4 °F 78% 29.95 in 2.5 mi Calm Calm - N/A   Haze
8:10 AM 77.0 °F - 62.6 °F 61% 29.98 in 1.4 mi Calm Calm - N/A   Haze
8:30 AM 78 °F - 63 °F 51% 30.00 in 2 mi NW 3.5 mph - -  
9:10 AM 82.4 °F 85.4 °F 68.0 °F 62% 30.01 in 2.2 mi North 3.5 mph - N/A   Smoke
9:40 AM 84.2 °F 87.3 °F 68.0 °F 58% 30.01 in 2.5 mi NNE 3.5 mph - N/A   Smoke
10:10 AM 87.8 °F 92.6 °F 69.8 °F 55% 30.01 in 2.5 mi NNE 5.8 mph - N/A   Smoke
10:40 AM 89.6 °F 94.7 °F 69.8 °F 52% 29.98 in 2.5 mi NNE 5.8 mph - N/A   Smoke
11:30 AM 90 °F - 65 °F 34% 30.00 in 2 mi Calm Calm - -  
12:10 PM 93.2 °F 96.2 °F 66.2 °F 41% 29.95 in 3.7 mi NNE 4.6 mph - N/A   Unknown
12:40 PM 95.0 °F 97.0 °F 64.4 °F 36% 29.95 in 3.7 mi North 3.5 mph - N/A   Unknown
1:10 PM 96.8 °F 98.0 °F 62.6 °F 32% 29.92 in 3.7 mi North 3.5 mph - N/A   Unknown
1:40 PM 98.6 °F 99.4 °F 60.8 °F 29% 29.92 in 3.7 mi North 3.5 mph - N/A   Unknown
2:10 PM 98.6 °F 99.4 °F 60.8 °F 29% 29.89 in 3.7 mi North 3.5 mph - N/A   Unknown
2:30 PM 96 °F - 61 °F 22% 29.92 in 2 mi Calm Calm - -  
2:40 PM 98.6 °F 100.0 °F 62.6 °F 30% 29.89 in 3.7 mi North 4.6 mph - N/A   Unknown
3:10 PM 100.4 °F 101.3 °F 60.8 °F 27% 29.86 in 3.7 mi NW 4.6 mph - N/A   Unknown
3:40 PM 100.4 °F 99.7 °F 57.2 °F 24% 29.86 in 3.7 mi NW 3.5 mph - N/A   Unknown
4:10 PM 98.6 °F 98.5 °F 59.0 °F 27% 29.86 in 3.7 mi NW 3.5 mph - N/A   Unknown
4:40 PM 98.6 °F 99.4 °F 60.8 °F 29% 29.86 in 3.7 mi NW 3.5 mph - N/A   Unknown
5:10 PM 96.8 °F 96.2 °F 59.0 °F 28% 29.86 in 3.7 mi NW 3.5 mph - N/A   Unknown
5:30 PM 94 °F - 64 °F 28% 29.90 in 2 mi Calm Calm - -  
5:40 PM 95.0 °F 94.4 °F 59.0 °F 30% 29.86 in 3.7 mi NNW 3.5 mph - N/A   Unknown
6:10 PM 91.4 °F 93.2 °F 64.4 °F 41% 29.89 in 3.1 mi NE 3.5 mph - N/A   Smoke
6:40 PM 89.6 °F 89.5 °F 60.8 °F 38% 29.89 in 2.5 mi ENE 3.5 mph - N/A   Smoke
7:10 PM 87.8 °F 87.6 °F 60.8 °F 40% 29.89 in 2.5 mi ESE 3.5 mph - N/A   Smoke
7:40 PM 84.2 °F 85.0 °F 62.6 °F 48% 29.92 in 2.5 mi NE 3.5 mph - N/A   Smoke
8:10 PM 82.4 °F 83.9 °F 64.4 °F 54% 29.95 in 2.5 mi NNE 3.5 mph - N/A   Smoke
8:30 PM 79 °F - 68 °F 62% 29.96 in 2 mi Calm Calm - -   Haze
8:40 PM 80.6 °F 82.7 °F 66.2 °F 61% 29.95 in 2.5 mi NE 3.5 mph - N/A   Smoke
9:10 PM 80.6 °F 82.7 °F 66.2 °F 61% 29.95 in 2.2 mi NE 3.5 mph - N/A   Smoke
10:10 PM 78.8 °F - 68.0 °F 69% 29.95 in 1.9 mi Calm Calm - N/A   Haze
10:40 PM 77.0 °F - 69.8 °F 78% 29.95 in 1.9 mi Calm Calm - N/A   Haze
11:10 PM 77.0 °F - 68.0 °F 74% 29.95 in 1.9 mi Calm Calm - N/A   Haze
11:30 PM 75 °F - 70 °F 79% 29.97 in 2 mi Calm Calm - -   Haze
11:40 PM 77.0 °F - 68.0 °F 74% 29.95 in 1.9 mi Calm Calm - N/A   Haze